Helicity
160 159 138 167 136 113 108 80 61 52 35 36 38 34 55 58 52 45 40 40 35 29 23 24 20 16 16 21 16 14 25 29 27 34 32 22 25 42 48 91 56 38 48
240 153 154 140 115 104 127 99 71 31 45 39 46 64 48 39 42 41 38 36 33 25 22 22 21 18 15 17 18 19 23 14 12 1 13 44 34 57 57 59 32 17 31
220 169 148 118 114 104 124 106 61 49 45 47 51 38 36 37 38 38 37 35 31 28 25 25 20 16 16 19 20 19 3 -14 -8 -20 -8 -0 50 57 60 49 37 27 29
228 169 160 118 91 115 125 95 54 49 44 72 53 35 34 37 40 38 39 37 32 27 25 23 19 19 22 16 19 13 -4 -20 6 21 -2 38 30 47 38 32 30 15 27
126 153 183 144 100 90 117 94 56 49 75 84 46 28 28 35 37 39 37 35 30 26 22 22 16 22 22 22 21 1 -19 -4 11 52 52 34 10 15 24 21 14 11 16
64 109 190 170 123 97 100 113 73 89 101 66 40 27 26 30 32 37 37 30 27 22 18 21 26 27 32 21 2 -15 -27 -32 -18 26 41 35 10 35 27 10 9 17 24
68 70 180 182 153 124 109 118 104 112 100 59 38 28 30 30 33 35 35 29 22 23 26 25 32 31 22 8 -9 -6 -2 -48 36 69 36 14 -13 20 27 43 49 41 35
65 218 185 171 164 152 119 106 141 124 97 61 37 32 31 35 30 28 30 22 24 26 28 33 34 28 26 15 5 36 69 66 45 39 31 4 17 57 66 48 31 21 18
66 263 250 187 170 156 139 106 154 125 98 67 48 42 45 41 33 31 31 30 33 33 40 39 38 37 38 31 36 63 65 45 21 28 34 21 59 66 46 40 20 12 12
94 233 252 207 191 178 167 152 152 134 100 83 77 87 80 62 46 43 44 50 46 44 51 48 46 49 53 46 27 16 -11 38 84 94 57 46 79 52 38 40 19 18 11
124 153 242 254 238 214 228 229 172 163 126 132 141 111 90 90 71 48 64 66 57 48 58 59 53 54 68 79 68 125 58 -7 75 78 63 83 61 41 33 32 23 16 12
114 131 127 230 265 272 245 262 224 224 181 159 132 67 67 52 65 110 107 84 61 70 68 64 49 45 47 52 107 153 192 171 98 95 50 68 33 41 45 39 30 21 17
102 81 368 424 329 310 309 320 271 242 171 131 86 23 73 148 149 134 127 123 107 99 90 70 30 7 27 35 87 92 132 148 109 81 40 42 31 52 45 40 35 29 21
53 -29 -92 1 245 357 331 330 254 218 170 118 64 34 162 142 130 109 93 91 73 87 54 60 68 38 48 48 111 131 131 139 132 104 59 55 44 49 40 50 38 34 24
37 -100 -372 -84 478 279 316 309 242 182 174 130 88 122 168 120 97 62 67 66 35 76 53 69 77 71 60 126 118 117 127 149 163 123 98 83 66 69 53 53 46 36 33
69 -114 -242 -255 8 522 350 259 230 180 192 156 152 169 119 81 97 84 99 76 77 75 70 83 77 96 129 95 92 106 117 139 133 132 116 72 79 62 56 44 46 49 37
-37 -75 -301 -163 72 496 196 271 264 221 225 191 180 139 117 102 112 116 95 92 83 85 91 97 113 139 145 132 89 112 89 94 86 70 56 63 94 92 81 52 49 49 53
69 -34 -170 -176 -223 128 107 331 270 232 231 187 157 149 116 127 135 124 125 113 89 104 100 112 103 140 150 136 131 116 92 81 60 50 37 34 46 99 97 77 56 64 50
42 10 -57 -121 -293 197 142 365 259 226 206 180 171 153 134 141 138 134 135 118 122 129 132 126 127 144 152 146 142 148 145 140 114 110 121 106 78 65 67 93 87 68 68
67 -22 -85 -181 -51 134 392 339 302 242 208 185 176 151 148 145 136 139 130 126 132 146 144 134 137 136 136 146 161 155 131 115 119 103 91 86 91 46 42 45 51 49 59
122 82 35 -43 9 196 271 344 263 209 189 190 171 148 151 152 131 126 139 130 130 135 121 120 147 154 167 184 240 231 192 148 127 91 81 81 76 62 44 35 34 39 44
79 119 103 86 140 207 163 202 218 189 217 204 195 167 157 145 128 136 152 135 135 135 126 140 155 190 166 208 190 220 168 144 110 92 81 76 68 77 73 76 73 41 52
82 136 116 91 74 92 161 262 226 238 255 232 179 170 133 143 138 156 148 141 133 131 132 134 151 176 172 152 142 143 152 115 153 92 81 88 90 82 71 89 99 87 67
64 108 131 79 66 56 90 227 245 256 203 185 169 203 184 171 157 163 152 145 126 140 142 156 137 162 193 133 93 133 138 131 131 120 97 85 92 77 88 103 105 92 105
86 82 127 133 38 59 -26 148 366 282 196 197 199 175 185 192 171 150 153 157 138 154 159 167 156 150 169 141 143 158 128 143 126 118 119 121 122 102 113 105 117 107 108
108 125 144 156 103 82 130 143 206 203 214 228 193 193 194 211 190 160 165 169 157 165 175 178 182 164 166 137 143 160 164 171 150 139 125 138 151 130 138 125 126 126 130
Wind_Speed
5 11 20 23 25 26 25 23 22 19 16 7 6 9 9 9 8 9 10 12 16 19 18 13 12 12 13 18 28 36 41 47 51 53 54 55 53 52 48 51 54 54 54
1 8 14 21 22 25 23 22 19 14 11 5 5 6 4 4 5 6 8 11 15 17 14 13 12 13 17 25 31 38 43 48 50 52 58 57 58 55 54 53 54 53 53
3 6 11 18 19 21 21 20 18 12 6 6 4 4 4 4 4 5 8 12 14 13 13 12 13 14 20 26 31 36 40 46 47 46 46 55 57 55 57 58 59 58 58
3 5 12 18 16 19 19 18 18 11 9 8 8 7 5 6 5 5 8 11 12 12 11 11 12 15 20 24 28 32 38 42 45 31 48 52 52 51 53 55 57 58 59
2 4 14 17 19 18 18 18 15 13 11 9 9 9 8 8 7 5 7 9 9 10 10 10 11 14 18 21 25 30 37 37 40 46 49 53 50 50 53 55 56 58 59
13 11 17 21 22 21 20 18 15 16 12 11 10 10 10 10 7 5 6 7 7 7 7 8 10 13 16 20 25 30 31 36 41 44 48 51 50 53 56 58 60 61 62
21 21 22 27 27 26 24 21 19 16 13 12 12 11 11 11 9 5 4 6 5 5 5 6 9 13 16 20 25 28 29 34 40 42 47 50 51 52 55 59 61 62 63
34 29 29 35 35 32 30 27 23 17 15 14 14 13 13 11 10 5 2 2 3 3 4 6 9 13 17 20 22 25 28 35 39 41 45 48 48 50 53 56 58 59 60
37 33 42 41 46 41 36 32 26 21 17 16 16 15 13 12 10 6 2 1 1 2 4 6 9 14 18 20 21 24 28 36 41 44 45 45 48 45 50 53 56 58 58
34 40 52 48 55 52 45 38 32 25 21 17 17 16 15 14 12 8 5 2 1 2 3 6 10 15 17 17 19 24 29 31 38 39 43 46 46 43 47 51 54 56 58
54 49 57 56 59 58 51 43 37 30 24 19 18 16 15 17 14 9 8 4 3 3 3 6 11 14 17 17 19 21 24 34 35 38 42 44 44 41 44 48 52 54 55
63 67 68 67 54 61 58 49 43 34 29 24 23 21 21 19 15 12 9 6 5 4 3 6 12 16 16 18 18 24 28 31 32 36 39 43 43 41 41 46 49 52 54
64 72 79 68 59 61 59 54 49 42 34 29 27 27 22 19 17 15 13 10 7 5 5 4 11 11 15 19 22 24 26 29 32 33 36 40 42 40 39 44 47 51 53
63 70 99 71 66 62 58 58 53 49 40 35 32 32 23 22 19 18 17 14 10 9 9 3 9 4 11 20 18 23 26 28 29 30 34 38 40 38 37 42 46 49 50
70 81 89 116 56 67 62 58 56 53 44 38 36 33 26 25 23 20 19 16 16 10 12 17 4 2 9 18 21 21 24 26 27 29 31 35 37 35 35 39 43 45 47
62 70 82 98 76 57 65 59 59 54 44 39 38 32 28 30 26 23 19 19 21 15 17 9 6 2 7 18 22 23 24 25 25 26 27 30 33 32 32 36 39 42 45
75 61 72 98 99 74 87 64 59 53 44 41 38 35 31 32 29 23 22 22 19 19 15 11 7 2 8 14 20 20 22 23 23 23 24 26 28 29 30 33 37 39 42
60 58 65 59 90 98 98 68 58 52 45 42 40 37 34 31 28 27 24 23 23 17 17 13 6 1 6 11 15 16 17 17 18 20 22 23 24 25 28 29 33 36 38
56 45 40 50 78 87 92 67 58 50 44 42 38 36 34 31 29 30 26 24 22 21 17 14 11 2 6 9 10 12 13 14 16 18 20 22 21 24 26 27 30 33 37
50 50 49 53 53 37 62 59 55 48 45 40 37 36 34 31 30 28 28 25 23 22 19 16 10 4 3 7 8 10 12 13 17 16 17 17 20 22 23 25 26 30 34
40 38 51 45 43 34 48 60 56 52 45 40 37 35 35 32 33 31 29 26 25 24 21 16 10 6 2 2 5 11 17 18 18 15 15 15 16 18 19 20 23 26 30
34 31 43 35 25 10 52 48 52 52 46 39 38 36 37 35 35 34 30 30 28 26 23 19 16 12 7 4 4 12 19 26 24 20 15 12 12 15 18 19 22 23 26
38 27 32 23 21 25 44 48 42 43 40 44 39 39 40 38 39 37 33 33 31 29 26 23 18 17 11 10 8 22 23 24 13 21 14 13 10 13 14 17 20 22 23
43 27 21 13 32 21 34 39 42 46 45 46 44 44 41 41 42 40 36 35 35 33 29 27 24 23 18 14 12 30 30 17 23 22 19 12 11 11 12 14 17 20 22
42 32 31 24 39 23 28 59 46 50 48 44 43 42 43 44 45 47 42 39 39 37 32 29 26 28 24 22 26 25 30 26 20 26 20 12 15 16 11 12 13 16 19
34 34 33 27 36 43 30 37 52 48 48 49 48 47 47 48 46 49 47 44 42 41 36 33 31 31 29 28 31 30 27 28 23 26 28 13 11 18 14 13 9 11 15
Wind_Direction
6 103 131 125 125 125 117 111 105 98 94 93 77 63 53 47 34 27 24 27 27 24 13 341 315 305 324 351 22 38 46 56 61 56 53 54 57 39 22 22 31 31 30
53 131 145 138 133 132 124 118 112 109 106 110 92 71 31 338 5 8 15 10 16 13 352 341 328 331 357 22 38 48 55 69 68 66 55 50 49 35 35 33 36 37 32
333 178 175 156 145 143 134 127 121 125 150 185 205 263 269 297 322 350 7 11 9 353 343 338 337 352 17 30 41 47 54 71 71 77 82 57 43 35 37 39 42 39 39
38 173 199 171 173 157 147 139 132 141 169 205 237 255 269 267 280 328 356 0 350 330 328 335 349 9 25 31 36 43 55 57 60 61 72 51 47 29 34 39 36 39 35
244 182 208 189 189 183 166 154 148 146 183 204 230 250 256 252 262 300 347 354 340 326 328 344 4 22 25 27 33 43 57 41 32 40 49 48 39 34 37 38 41 41 43
250 224 213 207 200 201 188 174 167 152 178 210 230 241 246 245 253 285 309 328 324 317 328 352 16 22 25 30 40 49 35 37 48 43 44 43 36 45 49 51 51 50 48
255 233 222 221 212 207 203 198 178 168 181 209 226 237 238 241 247 271 321 317 334 353 346 5 19 25 32 40 48 38 19 33 45 41 42 49 49 48 49 50 45 43 43
273 237 226 228 224 215 212 209 190 187 188 212 225 231 233 234 240 252 301 355 20 9 24 28 25 32 40 44 41 26 16 37 44 42 50 48 48 47 43 41 41 42 42
271 235 232 230 230 223 216 212 202 198 195 211 223 226 228 229 230 234 235 87 43 46 53 36 37 45 48 48 35 17 21 45 52 57 53 49 52 38 40 39 43 48 48
271 239 233 231 229 226 222 211 211 204 205 210 219 221 223 223 225 223 225 214 205 109 70 50 54 55 52 42 31 29 33 31 48 46 51 56 43 34 37 39 45 48 52
274 252 238 230 225 225 219 212 213 207 209 209 212 212 214 225 224 210 225 208 210 144 92 65 66 64 59 43 25 349 359 57 51 51 57 51 42 31 32 38 44 48 51
266 261 242 236 220 220 219 213 214 211 215 217 216 213 223 219 214 219 217 206 197 147 109 81 83 77 59 42 16 9 27 37 48 56 55 50 43 35 32 39 43 47 49
268 258 237 267 214 216 217 215 217 216 218 218 214 215 219 215 214 222 222 218 202 185 216 110 91 72 56 53 39 29 29 35 47 55 53 52 49 40 32 35 39 44 51
268 263 247 253 254 215 214 216 217 217 217 218 211 219 209 212 217 220 222 217 205 217 206 225 268 316 44 65 38 32 36 46 46 45 47 50 54 40 32 32 35 42 50
269 265 256 237 262 221 214 216 217 218 217 216 211 218 208 215 216 214 220 216 220 208 223 251 252 358 49 60 49 42 45 49 49 46 43 47 45 32 24 27 30 39 46
273 270 252 233 248 252 215 214 216 217 215 214 214 210 212 215 218 219 213 218 232 219 238 234 234 298 44 58 59 60 59 58 52 46 40 38 32 23 22 19 23 32 40
260 265 249 231 233 242 227 212 214 215 213 213 212 212 212 218 220 215 219 223 222 228 227 229 245 314 50 51 66 64 67 62 53 48 41 29 23 12 18 16 20 29 32
258 257 244 252 242 243 225 207 209 212 212 214 213 214 216 217 218 221 221 223 228 221 227 226 214 132 60 61 58 60 66 50 49 42 37 32 24 13 9 19 20 21 23
252 249 253 256 234 231 206 201 205 207 211 213 211 212 217 216 218 225 223 225 226 226 225 228 244 178 86 67 44 33 24 11 7 6 8 15 36 30 25 23 19 16 16
248 247 248 243 230 231 193 196 204 206 211 212 213 214 216 217 218 223 227 225 226 228 228 233 233 233 91 80 31 17 10 360 349 2 16 15 30 36 42 39 27 19 17
247 252 241 239 233 236 201 199 203 208 211 213 216 216 218 218 220 224 227 226 229 230 230 230 228 211 183 32 22 345 331 332 329 348 10 23 12 28 49 48 33 26 23
253 251 254 265 247 129 213 205 211 214 217 218 219 220 222 222 224 228 226 229 231 232 232 231 238 245 242 176 303 325 313 306 307 316 342 12 11 8 10 18 24 30 22
252 251 249 259 252 235 225 215 215 218 217 224 223 224 225 226 228 231 231 233 234 237 234 236 231 247 229 243 185 309 306 306 306 305 321 339 1 357 6 7 9 12 20
253 250 241 251 242 234 233 213 212 220 220 228 229 231 228 230 231 234 234 235 237 241 238 241 244 253 253 232 246 291 303 317 304 306 305 313 332 341 355 2 6 6 13
252 250 251 263 241 249 233 233 224 223 228 230 232 232 233 234 235 237 237 237 238 243 241 241 243 252 255 257 272 277 290 298 308 308 307 299 313 321 336 349 1 2 7
262 255 252 250 246 250 243 244 239 224 225 230 234 234 235 236 238 239 241 241 242 244 243 244 247 251 258 263 269 274 278 286 289 302 307 295 291 308 318 332 349 1 2